Hlavní strana
METAR-TAF:

METAR-TAF

Letiště :

Baldwin_County_Airport

Milledgeville, Georgie, Spojené státy americké

zeměpisná šířka: 33-09-15N, zeměpisná délka: 083-14-26W, výška: 117 m

Aktuální stav počasí

Zpráva byla vytvořena před 18 minutami, v 08:37 UTC
Bezvětří
Teplota 23°C
Vlhkost vzduchu 94%
Tlak 1017 hPa
Viditelnost: 16.1 km
Jasno

METAR: KMLJ 070837Z AUTO 00000KT 10SM CLR 23/22 A3004 RMK AO2

Čas: 04:55 (08:55 UTC)


TAF: chybějící

Stav a předpovědi počasí z více než 4 000 letišť (zprávy METAR a TAF).

Červené a žluté tečky na mapě představují dostupné meteorologické stanice.

Když kurzor umístíte na tečku, zobrazí se název stanice.

Pak kliknutím zobrazíte stav a předpověď počasí.

Chcete-li změnit mapu, kliknutím na zelené tlačítko se znaménkem +mapu přiblížíte, kliknutím na zelené tlačítko se znaménkem – mapu oddálíte a kliknutím na zelené šipky přejdete na sousední mapy.


METAR-TAF: